Regional Weather Roundup
Issued by NWS

Home | Current Version | Previous Version | Graphics & Text | Print | Product List | Glossary On
Versions: 1 2 3 4 5 6 7 8 9 10 11 12 13 14 15 16 17 18 19 20 21 22 23 24 25 26 27 28 29 30 31 32 33 34 35 36 37 38 39 40 41 42 43 44 45 46 47 48 49 50
000
ASUS43 KDTX 220110
RWRMI
MICHIGAN HOURLY REGIONAL WEATHER ROUNDUP
NATIONAL WEATHER SERVICE DETROIT/PONTIAC MI
900 PM EDT THU MAY 21 2015

NOTE: "FAIR" INDICATES FEW OR NO CLOUDS BELOW 12,000 FEET WITH NO
SIGNIFICANT WEATHER AND/OR OBSTRUCTION TO VISIBILITY.

MIZ047>049-052>055-059>063-066>070-074>076-081>083-220200-
SOUTHEAST LOWER MICHIGAN

CITY           SKY/WX    TMP DP  RH WIND       PRES   REMARKS
ADRIAN         CLEAR     58  33  39 W6        30.00R
ALMA           CLOUDY    60  38  43 W7        29.96R
ANN ARBOR      CLEAR     54  36  50 W7        29.98R
BAD AXE        CLOUDY    61  33  36 W5        29.90R
CARO           PTCLDY    60  36  40 SW8       29.91R
DETROIT CITY   CLEAR     61  30  31 W7        29.96R
DETROIT        PTCLDY    60  35  39 W7        29.97R
FLINT          CLEAR     60  34  37 W10       29.95R
GROSSE ILE     CLEAR     59  36  41 SW5       29.96R
HILLSDALE      CLEAR     57  31  37 W6        30.00S
HOWELL         CLEAR     56  33  42 W5        29.97R

CITY           SKY/WX    TMP DP  RH WIND       PRES   REMARKS
JACKSON        CLEAR     56  33  42 W6        29.99R
LAMBERTVILLE   CLEAR     59  34  38 W6        30.00R
LANSING        CLEAR     58  35  42 W7        29.98R
LAPEER         FAIR      59  31  33 W9        29.94R
MASON          CLEAR     56  33  41 CALM      29.98R
MONROE         CLEAR     57  37  47 W5        29.97R
MT. CLEMENS    CLEAR     61  33  34 W9        29.92R
PONTIAC        PTCLDY    58  32  37 SW7       29.95R
PORT HOPE        N/A     54  41  61 N10       29.89R
PORT HURON     PTCLDY    59  36  41 SW5       29.93R
TRI CITIES     MOCLDY    63  36  36 W14       29.93R
MIDLAND        MOCLDY    63  37  38 W5        29.92R
TROY           CLEAR     62  31  30 W7        29.97R
SAGINAW HB     PTCLDY    61  34  36 SW14      29.93R
$$
MIZ043>046-050>051-056>058-064>065-071>073-077>080-220200-
SOUTHWEST LOWER MICHIGAN

CITY           SKY/WX    TMP DP  RH WIND       PRES   REMARKS
BATTLE CREEK   CLEAR     56  37  49 SW8       30.00S
BENTON HARBOR  CLEAR     57  35  43 SW8       30.00S
BIG RAPIDS     CLOUDY    58  36  43 SW5       29.94S
COLDWATER      CLEAR     53  35  49 W6        30.01R
FREMONT        CLOUDY    56  35  44 SW3       29.96S
HOLLAND        PTCLDY    58  39  49 SW12      29.98S
GRAND RAPIDS   PTCLDY    58  37  45 SW10      29.97S
IONIA          MOCLDY    58  37  46 W7        29.96R
KALAMAZOO      CLEAR     59  35  40 SW6       30.00S
LUDINGTON      MOCLDY    55  40  56 CALM      29.97R
MARSHALL       CLEAR     55  36  49 SW5       29.99R
MOUNT PLEASANT MOCLDY    60  38  44 W10       29.94R
MUSKEGON       PTCLDY    54  37  52 SW14      29.95S
SOUTH HAVEN    CLEAR     59  32  35 SW6       29.99S
$$
MIZ016>042-220200-
NORTHERN LOWER MICHIGAN

CITY           SKY/WX    TMP DP  RH WIND       PRES   REMARKS
ALPENA         CLEAR     53  28  38 NW15G25   29.92R
BEAVER ISLAND  CLEAR     48  26  41 NW8       29.99R
BELLAIRE       CLEAR     52  28  40 CALM      29.99R
CADILLAC       PTCLDY    53  32  45 N7        29.97R
CHARLEVOIX     CLEAR     46  32  57 NW3       30.01R
FRANKFORT      PTCLDY    54  25  32 NE8       29.99R
GAYLORD        CLEAR     50  26  39 NW9       29.96R
GRAYLING       PTCLDY    52  28  40 NW12      29.97R
HARBOR SPRINGS CLEAR     50  28  43 W3        29.97R
HOUGHTON LAKE  MOCLDY    53  32  44 NW10      29.95R
MANISTEE       MOCLDY    48  36  61 N5        29.98R
OSCODA         MOCLDY    62  33  34 NW13      29.89R
PELLSTON       CLEAR     48  30  49 NW9       29.97R
ROGERS CITY    CLEAR     50  32  50 NW12G22   29.94R
TRAVERSE CITY  PTCLDY    53  30  41 N9        29.99R
$$
MIZ007>008-015-220200-
EASTERN UPPER MICHIGAN

CITY           SKY/WX    TMP DP  RH WIND       PRES   REMARKS
KINROSS        CLEAR     46  25  42 NW15G23   29.94R
MACKINAC ISLAN CLEAR     48  25  40 NW13G21   29.95R
NEWBERRY       CLEAR     46  23  39 NW7       29.98R
S. S. MARIE    CLEAR     43  28  55 W6G18     29.94R
MUNISING         N/A     46  30  53 NW12      30.02R
$$
MIZ004>006-011>014-085-220200-
CENTRAL UPPER MICHIGAN

CITY           SKY/WX    TMP DP  RH WIND       PRES   REMARKS
MANISTIQUE     CLEAR     49  19  30 NW10G17   29.99R
ESCANABA       CLEAR     55  27  33 N8G17     29.99R
MENOMINEE      CLEAR     54  28  37 E10       29.99R
SAWYER-GWINN   CLEAR     48  19  32 N13       30.01R
$$
MIZ001>003-009>011-084-220200-
WESTERN UPPER MICHIGAN

CITY           SKY/WX    TMP DP  RH WIND       PRES   REMARKS
IRON MOUNTAIN  CLEAR     59  25  27 N10       29.98R
HOUGHTON       CLEAR     49  30  48 E5        30.02R
COPPER HARBOR    N/A     47  27  45 N5        30.03R
IRONWOOD       CLEAR     57  28  33 NW5       29.99R
$$

ABBREVIATIONS USED IN REMARKS
   TC - TEMPERATURE IN CELSIUS
  WCI - WIND CHILL INDEX
   HX - HEAT INDEX
  VSB - VISIBILITY



USA.gov is the U.S. government's official web portal to all federal, state and local government web resources and services.